Hourly Weather Galdar

Today, 6 July, Monday

Time Temperature Precipitation Wind Pressure Humidity
00:00 +27°C° 0 mm 6 mps 749 mmHg 49%
01:00 +27°C° 0 mm 5 mps 749 mmHg 44%
02:00 +28°C° 0 mm 5 mps 748 mmHg 40%
03:00 +28°C° 0 mm 5 mps 748 mmHg 40%
04:00 +29°C° 0 mm 6 mps 748 mmHg 40%
05:00 +29°C° 0 mm 6 mps 748 mmHg 40%
06:00 +30°C° 0 mm 6 mps 748 mmHg 40%
07:00 +32°C° 0 mm 6 mps 748 mmHg 40%
08:00 +33°C° 0 mm 6 mps 749 mmHg 41%
09:00 +33°C° 0 mm 6 mps 749 mmHg 40%
10:00 +34°C° 0 mm 6 mps 749 mmHg 40%
11:00 +34°C° 0 mm 6 mps 749 mmHg 39%
12:00 +35°C° 0 mm 6 mps 749 mmHg 40%
13:00 +35°C° 0 mm 6 mps 748 mmHg 41%
14:00 +35°C° 0 mm 6 mps 748 mmHg 42%
15:00 +34°C° 0 mm 6 mps 748 mmHg 44%
16:00 +34°C° 0 mm 6 mps 748 mmHg 45%
17:00 +34°C° 0 mm 6 mps 747 mmHg 47%
18:00 +32°C° 0 mm 6 mps 748 mmHg 52%
19:00 +30°C° 0 mm 5 mps 748 mmHg 57%
20:00 +29°C° 0 mm 5 mps 748 mmHg 61%
21:00 +29°C° 0 mm 5 mps 748 mmHg 58%
22:00 +29°C° 0 mm 5 mps 748 mmHg 55%
23:00 +30°C° 0 mm 5 mps 748 mmHg 52%

Tomorrow, 7 July, Tuesday

Time Temperature Precipitation Wind Pressure Humidity
00:00 +29°C° 0 mm 5 mps 748 mmHg 53%
01:00 +29°C° 0 mm 5 mps 747 mmHg 54%
02:00 +29°C° 0 mm 5 mps 747 mmHg 55%
03:00 +29°C° 0 mm 5 mps 747 mmHg 52%
04:00 +29°C° 0 mm 5 mps 747 mmHg 50%
05:00 +29°C° 0 mm 5 mps 747 mmHg 47%
06:00 +30°C° 0 mm 5 mps 747 mmHg 44%
07:00 +33°C° 0 mm 4 mps 748 mmHg 40%
08:00 +35°C° 0 mm 4 mps 748 mmHg 37%
09:00 +35°C° 0 mm 4 mps 748 mmHg 36%
10:00 +36°C° 0 mm 4 mps 749 mmHg 35%
11:00 +37°C° 0 mm 5 mps 749 mmHg 34%
12:00 +36°C° 0 mm 5 mps 749 mmHg 36%
13:00 +36°C° 0 mm 5 mps 749 mmHg 38%
14:00 +36°C° 0 mm 5 mps 748 mmHg 41%
15:00 +36°C° 0 mm 5 mps 748 mmHg 40%
16:00 +35°C° 0 mm 6 mps 748 mmHg 40%
17:00 +35°C° 0 mm 6 mps 748 mmHg 40%
18:00 +34°C° 0 mm 6 mps 748 mmHg 41%
19:00 +33°C° 0 mm 6 mps 749 mmHg 42%
20:00 +32°C° 0 mm 6 mps 749 mmHg 43%
21:00 +32°C° 0 mm 6 mps 749 mmHg 43%
22:00 +32°C° 0 mm 6 mps 749 mmHg 43%
23:00 +32°C° 0 mm 6 mps 749 mmHg 43%

Day after tomorrow, 8 July, Wednesday

Time Temperature Precipitation Wind Pressure Humidity
00:00 +32°C° 0 mm 6 mps 749 mmHg 44%
01:00 +32°C° 0 mm 6 mps 749 mmHg 44%
02:00 +30°C° 0 mm 6 mps 749 mmHg 44%
03:00 +30°C° 0 mm 6 mps 749 mmHg 44%
04:00 +30°C° 0 mm 6 mps 749 mmHg 44%
05:00 +29°C° 0 mm 6 mps 749 mmHg 44%
06:00 +32°C° 0 mm 5 mps 749 mmHg 40%
07:00 +33°C° 0 mm 5 mps 750 mmHg 36%
08:00 +35°C° 0 mm 5 mps 750 mmHg 32%
09:00 +36°C° 0 mm 5 mps 750 mmHg 30%
10:00 +36°C° 0 mm 5 mps 750 mmHg 28%
11:00 +37°C° 0 mm 5 mps 751 mmHg 26%
12:00 +38°C° 0 mm 6 mps 750 mmHg 26%
13:00 +38°C° 0 mm 6 mps 750 mmHg 26%
14:00 +38°C° 0 mm 6 mps 750 mmHg 26%
15:00 +38°C° 0 mm 6 mps 750 mmHg 29%
16:00 +36°C° 0 mm 7 mps 750 mmHg 31%
17:00 +35°C° 0 mm 7 mps 750 mmHg 33%
18:00 +34°C° 0 mm 7 mps 750 mmHg 37%
19:00 +32°C° 0 mm 7 mps 751 mmHg 40%
20:00 +30°C° 0 mm 6 mps 751 mmHg 44%
21:00 +29°C° 0 mm 6 mps 751 mmHg 43%
22:00 +29°C° 0 mm 6 mps 751 mmHg 42%
23:00 +29°C° 0 mm 6 mps 751 mmHg 41%

9 July, Thursday

Time Temperature Precipitation Wind Pressure Humidity
00:00 +29°C° 0 mm 6 mps 751 mmHg 41%
01:00 +28°C° 0 mm 6 mps 751 mmHg 40%
02:00 +28°C° 0 mm 6 mps 750 mmHg 39%
03:00 +28°C° 0 mm 6 mps 751 mmHg 41%
04:00 +28°C° 0 mm 6 mps 751 mmHg 42%
05:00 +27°C° 0 mm 6 mps 751 mmHg 43%
06:00 +28°C° 0 mm 6 mps 751 mmHg 41%
07:00 +29°C° 0 mm 6 mps 751 mmHg 39%
08:00 +30°C° 0 mm 7 mps 752 mmHg 37%
09:00 +30°C° 0 mm 7 mps 752 mmHg 36%
10:00 +32°C° 0 mm 7 mps 752 mmHg 34%
11:00 +33°C° 0 mm 7 mps 752 mmHg 33%
12:00 +32°C° 0 mm 7 mps 752 mmHg 35%
13:00 +32°C° 0 mm 7 mps 752 mmHg 38%
14:00 +30°C° 0 mm 7 mps 751 mmHg 40%
15:00 +29°C° 0 mm 7 mps 751 mmHg 43%
16:00 +29°C° 0 mm 7 mps 751 mmHg 47%
17:00 +28°C° 0 mm 7 mps 751 mmHg 51%
18:00 +26°C° 0 mm 7 mps 751 mmHg 56%
19:00 +24°C° 0 mm 7 mps 751 mmHg 61%
20:00 +23°C° 0 mm 7 mps 751 mmHg 67%
21:00 +23°C° 0 mm 8 mps 751 mmHg 71%
22:00 +22°C° 0 mm 8 mps 751 mmHg 75%
23:00 +22°C° 0 mm 8 mps 751 mmHg 79%

10 July, Friday

Time Temperature Precipitation Wind Pressure Humidity
00:00 +22°C° 0 mm 8 mps 751 mmHg 81%
01:00 +22°C° 0 mm 8 mps 750 mmHg 82%
02:00 +21°C° 0 mm 8 mps 750 mmHg 84%
03:00 +21°C° 0 mm 8 mps 750 mmHg 83%
04:00 +21°C° 0 mm 8 mps 750 mmHg 82%
05:00 +21°C° 0 mm 8 mps 750 mmHg 81%
06:00 +22°C° 0 mm 8 mps 750 mmHg 77%
07:00 +23°C° 0 mm 8 mps 750 mmHg 73%
08:00 +24°C° 0 mm 8 mps 750 mmHg 69%
09:00 +26°C° 0 mm 8 mps 750 mmHg 64%
10:00 +27°C° 0 mm 8 mps 750 mmHg 59%
11:00 +28°C° 0 mm 8 mps 750 mmHg 54%
12:00 +28°C° 0 mm 8 mps 750 mmHg 53%
13:00 +29°C° 0 mm 7 mps 749 mmHg 53%
14:00 +29°C° 0 mm 7 mps 749 mmHg 53%
15:00 +28°C° 0 mm 8 mps 749 mmHg 54%
16:00 +28°C° 0 mm 8 mps 749 mmHg 55%
17:00 +28°C° 0 mm 8 mps 748 mmHg 55%
18:00 +26°C° 0 mm 8 mps 749 mmHg 63%
19:00 +24°C° 0 mm 8 mps 749 mmHg 71%
20:00 +22°C° 0 mm 8 mps 749 mmHg 79%
21:00 +22°C° 0 mm 8 mps 749 mmHg 81%
22:00 +22°C° 0 mm 8 mps 749 mmHg 82%
23:00 +22°C° 0 mm 8 mps 749 mmHg 84%

11 July, Saturday

Time Temperature Precipitation Wind Pressure Humidity
00:00 +22°C° 0 mm 8 mps 749 mmHg 84%
01:00 +22°C° 0 mm 8 mps 748 mmHg 84%
02:00 +22°C° 0 mm 8 mps 748 mmHg 83%
03:00 +22°C° 0 mm 8 mps 748 mmHg 85%
04:00 +21°C° 0 mm 8 mps 748 mmHg 86%
05:00 +21°C° 0 mm 8 mps 748 mmHg 88%
06:00 +22°C° 0 mm 8 mps 748 mmHg 81%
07:00 +23°C° 0 mm 7 mps 748 mmHg 75%
08:00 +24°C° 0 mm 7 mps 749 mmHg 68%
09:00 +26°C° 0 mm 7 mps 749 mmHg 63%
10:00 +27°C° 0 mm 8 mps 749 mmHg 57%
11:00 +28°C° 0 mm 8 mps 749 mmHg 52%
12:00 +28°C° 0 mm 8 mps 749 mmHg 53%
13:00 +28°C° 0 mm 8 mps 748 mmHg 54%
14:00 +28°C° 0 mm 8 mps 748 mmHg 56%
15:00 +28°C° 0 mm 8 mps 748 mmHg 56%
16:00 +27°C° 0 mm 8 mps 748 mmHg 56%
17:00 +27°C° 0 mm 7 mps 748 mmHg 56%
18:00 +26°C° 0 mm 7 mps 748 mmHg 64%
19:00 +24°C° 0 mm 7 mps 748 mmHg 71%
20:00 +22°C° 0 mm 7 mps 748 mmHg 78%
21:00 +22°C° 0 mm 7 mps 748 mmHg 77%
22:00 +23°C° 0 mm 7 mps 749 mmHg 75%
23:00 +23°C° 0 mm 7 mps 749 mmHg 73%
Show more